x

Buoy E01 - Central Maine Shelf (44032) Wave Buoy

5:04am - Sun 7th Feb 2016 All times are EST. -5 hours from GMT.

  • Sig Wave height 6.6ft
  • Peak Period 6s
  • Wind
    22mph, 29mph gusts
  • Sea Temp 42°f
  • 空気 Temp 39°f
  • Sea Pressure 1017.9mb
  • Buoy E01 - Central Maine Shelf
  • Buoy E01 - Central Maine Shelf

More Historic Weather Station data

Upgrade to MSW Pro to gain access to the past 30 days of data for over 8000 Wavebouys and Weather Stations around the globe.

Join Pro

Comparision Forecast

View Surf forecast
   
Sun 02/07 5:04am 6.5ft 6s 22 29 mph 1017.9mb 42f 39f
4:04am 6ft 6s 22 27 mph 1017.9mb 42f 38f
3:04am 6ft 6s 22 27 mph 1018.2mb 42f 38f
2:04am 7ft 6s 25 27 mph 1018.7mb 42f 39f
1:04am 7ft 6s 25 29 mph 1019.2mb 42f 39f
12:04am 7.5ft 6s 27 34 mph 1019.8mb 42f 39f
Sat 02/06 11:04pm 7ft 6s 25 31 mph 1020.5mb 42f 39f
10:04pm 8ft 8s 27 34 mph 1020.6mb 42f 39f
9:04pm 7.5ft 6s 25 31 mph 1021.4mb 42f 39f
8:04pm 7ft 6s 25 31 mph 1021.8mb 42f 39f
7:04pm 7ft 5s 25 31 mph 1022mb 42f 39f
6:04pm 6ft 5s 25 31 mph 1022.1mb 42f 39f
5:04pm 6ft 5s 27 31 mph 1022.1mb 42f 38f
4:04pm 5ft 5s 25 29 mph 1022.4mb 42f 38f
3:04pm 5ft 5s 22 29 mph 1022.8mb 42f 37f
2:04pm 5ft 5s 22 27 mph 1022.9mb 42f 37f
1:04pm 5ft 5s 22 27 mph 1023.5mb 42f 36f
12:04pm 4.5ft 11s 20 25 mph 1024.2mb 42f 34f
11:04am 3.5ft 11s 20 25 mph 1025.1mb 42f 34f
10:04am 3ft 11s 11 13 mph 1025.6mb 42f 33f
9:04am 3ft 11s 7 11 mph 1025.5mb 42f 31f
8:04am 3ft 11s 13 16 mph 1025.4mb 42f 30f
7:04am 4ft 11s 13 18 mph 1025mb 42f 28f
6:04am 4ft 11s 13 18 mph 1024.5mb 42f 27f
5:04am 3.5ft 11s 16 20 mph 1023.7mb 42f 27f
4:04am 2.5ft 4s 18 22 mph 1023.2mb 42f 27f
3:04am 3.5ft 4s 22 29 mph 1022.6mb 42f 27f
2:04am 3.5ft 4s 25 29 mph 1021.8mb 42f 26f
1:04am 3.5ft 4s 25 31 mph 1020.9mb 42f 25f
12:04am 3.5ft 3s 20 25 mph 1020.5mb 42f 24f
Fri 02/05 11:04pm 3ft 3s 18 25 mph 1019.4mb 42f 25f
10:04pm 3ft 3s 22 29 mph 1017.8mb 42f 27f
9:04pm 3.5ft 4s 18 25 mph 1016.8mb 42f 28f
8:04pm 3.5ft 4s 20 27 mph 1015.6mb 42f 29f
7:04pm 4.5ft 5s 25 29 mph 1014.3mb 42f 29f
6:04pm 5.5ft 5s 31 36 mph 1012.1mb 42f 30f
5:04pm 4.5ft 5s 34 38 mph 1011.1mb 42f 30f
4:04pm 4ft 4s 27 34 mph 1011.5mb 42f 31f
3:04pm 5ft 4s 27 38 mph 1011.2mb 42f 32f
2:04pm 5ft 8s 27 34 mph 1010.7mb 42f 32f
1:04pm 5ft 11s 25 29 mph 1011.6mb 42f 32f
12:04pm 5ft 11s 27 31 mph 1013.4mb 42f 32f
11:04am 4.5ft 8s 22 29 mph 1014.5mb 42f 33f
10:04am 5ft 11s 22 25 mph 1017.1mb 43f 33f
9:04am 4ft 4s 27 34 mph 1015mb 43f 33f
8:04am 5ft 11s 22 27 mph 1017mb 43f 34f
7:04am 6ft 11s 20 25 mph 1016.7mb 43f 34f
6:04am 6ft 8s 20 25 mph 1016.8mb 43f 35f
5:04am 6ft 11s 16 20 mph 1017.1mb 43f 36f
4:04am 5.5ft 8s 18 22 mph 1017.2mb 43f 39f
3:04am 5ft 8s 16 18 mph 1017mb 43f 41f
2:04am 5ft 8s 13 22 mph 1017.4mb 43f 42f
1:04am 4.5ft 8s 9
mph
1017.4mb 43f 42f
12:04am 4.5ft 8s 9 13 mph 1015.8mb 43f 43f
Thu 02/04 11:04pm 4.5ft 8s 9 11 mph 1016.3mb 43f 43f
10:04pm 4ft 8s 11 13 mph 1016.5mb 43f 44f
9:04pm 4.5ft 8s 9 11 mph 1017.2mb 43f 44f
8:04pm 4.5ft 8s 11 13 mph 1016.2mb 43f 44f
7:04pm 5.5ft 8s 11 13 mph 1015.2mb 43f 45f
6:04pm 5.5ft 8s 7 9 mph 1014.6mb 43f 44f
5:04pm 6ft 8s 7
mph
1013.9mb 43f 44f
4:04pm 5ft 8s 2
mph
1013.3mb 43f 44f
3:04pm 6.5ft 8s 2
mph
1012.4mb 43f 45f
2:04pm 6ft 8s 7 9 mph 1011.9mb 43f 46f
1:04pm 6ft 8s 4 7 mph 1011.1mb 43f 45f
12:04pm 6.5ft 8s 4 7 mph 1011mb 43f 45f
11:04am 8ft 8s 7 9 mph 1012.2mb 43f 46f
10:04am 7ft 8s 13 20 mph 1011mb 43f 46f
9:04am 7.5ft 8s 16 20 mph 1010.5mb 43f 47f
8:04am 8.5ft 8s 16 18 mph 1010mb 43f 47f
7:04am 8ft 8s 16 18 mph 1009.7mb 43f 47f
6:04am 10ft 8s 18 20 mph 1009.4mb 43f 48f
5:04am 10ft 8s 20 25 mph 1008.9mb 43f 47f
4:04am 9.5ft 8s 18 20 mph 1009.3mb 43f 46f
3:04am 10.5ft 8s 16 18 mph 1009.9mb 43f 47f
2:04am 12.5ft 8s 20 25 mph 1010mb 43f 47f
1:04am 15.5ft 11s 16 20 mph 1009.9mb 43f 48f
12:04am 17.5ft 8s 22 31 mph 1009.1mb 43f 50f
Wed 02/03 11:04pm  -   -  22 29 mph 1008.7mb 43f 51f
10:04pm 18.5ft 8s 22 29 mph 1009.2mb 43f 50f
9:04pm 15ft 8s 27 40 mph - 43f 50f
8:04pm 17.5ft 11s 36 45 mph 1008.3mb 43f 51f
7:04pm 15ft 8s 34 43 mph 1011mb 43f 49f
6:04pm 13ft 8s 34 47 mph 1011.9mb 43f 47f
5:04pm 13.5ft 8s 34 40 mph 1013.8mb 43f 46f
4:04pm 11.5ft 8s 29 36 mph 1015.4mb 43f 44f
3:04pm 11ft 8s 29 36 mph 1016.8mb 43f 44f
2:04pm 9ft 6s 29 36 mph 1018.2mb 43f 42f
1:04pm 9.5ft 6s 29 36 mph 1020.2mb 43f 42f